Regional Weather Roundup
Issued by NWS State College, PA

Home | Current Version | Previous Version | Text Only | Print | Product List | Glossary On
Versions: 1 2 3 4 5 6 7 8 9 10 11 12 13 14 15 16 17 18 19 20 21 22 23 24 25 26 27 28 29 30 31 32 33 34 35 36 37 38 39 40 41 42 43 44 45 46 47 48 49 50
000
ASUS41 KCTP 201710
RWRCTP

REGIONAL WEATHER ROUNDUP
NATIONAL WEATHER SERVICE STATE COLLEGE PA
100 PM EDT SUN AUG 20 2017

Note: "fair" indicates few or no clouds below 12,000 feet with no
significant weather and/or obstructions to visibility.

* = STATION THAT DOES NOT REPORT PRECIPITATION /E.G. RAIN...SNOW...ETC/
    THUNDER OR FOG.

PAZ002>004-007>009-013>016-020>023-029>032-201800-
WESTERN PENNSYLVANIA

CITY           SKY/WX    TMP DP  RH WIND       PRES   REMARKS
ERIE           SUNNY     80  60  50 NW10      30.12F
MEADVILLE      SUNNY     77  59  53 S6        30.16F
FRANKLIN*      SUNNY     77  55  47 SW9       30.17S
NEW CASTLE     FAIR      78  58  49 CALM      30.17S
BEAVER COUNTY  NOT AVBL
BUTLER*        SUNNY     75  61  60 VRB6      30.18S
PITTSBURGH INT SUNNY     77  61  57 SE6       30.16F
PITTSBURGH     SUNNY     77  57  50 CALM      30.16F
INDIANA*       SUNNY     75  59  57 S6        30.20F
LATROBE        SUNNY     77  55  47 CALM      30.18F
WASHINGTON CO* SUNNY     77  64  65 CALM      30.17S
$$

PAZ004>006-010>012-017>019-024>028-033>037-041-042-045-046-049>053-201800-
CENTRAL PENNSYLVANIA

CITY           SKY/WX    TMP DP  RH WIND       PRES   REMARKS
BRADFORD       MOSUNNY   74  58  57 NW7       30.18F
DUBOIS         SUNNY     74  56  53 CALM      30.18F
CLEARFIELD     PTSUNNY   75  61  61 CALM      30.18F
JOHNSTOWN      SUNNY     74  58  57 NW3       30.21F
ALTOONA        SUNNY     75  61  61 VRB3      30.19F
STATE COLLEGE  MOSUNNY   75  61  60 CALM      30.18R
WILLIAMSPORT   MOSUNNY   79  63  57 S5        30.13R
SELINSGROVE    MOSUNNY   79  65  62 VRB3      30.15R
FT INDIANTOWN  SUNNY     78  62  56 NW5       30.14R
CAPITAL CITY   SUNNY     81  59  47 NW8       30.15R
HARRISBURG     MOSUNNY   79  62  56 W3        30.14R
YORK           MOSUNNY   79  61  53 CALM      30.15S
$$

PAZ038>040-043-044-047-048-054-055-060>062-067>071-201800-
EASTERN PENNSYLVANIA

CITY           SKY/WX    TMP DP  RH WIND       PRES   REMARKS
SCRANTON       SUNNY     76  59  55 VRB6      30.15R
MOUNT POCONO     N/A     71  55  56 NW9G17    30.16R
ALLENTOWN      SUNNY     79  60  52 N7        30.12R
QUAKERTOWN*    SUNNY     79  61  53 N6        30.13S
READING        MOSUNNY   80  62  54 NW9       30.12R
LANCASTER      SUNNY     81  59  47 NW10      30.14R
COATESVILLE    SUNNY     77  61  57 VRB6      30.16R
POTTSTOWN      SUNNY     77  61  57 VRB5      30.14R
BLUE BELL      SUNNY     77  61  57 NW7       30.13R
DOYLESTOWN     SUNNY     79  62  56 NW7       30.11S
WILLOW GROVE   NOT AVBL
NORTH PHILA    SUNNY     83  62  49 VRB5      30.12R
PHILADELPHIA   MOSUNNY   82  56  40 NW10      30.11S
$$




USA.gov is the U.S. government's official web portal to all federal, state and local government web resources and services.